| time (UTC) | temp F | wind direction | speed knots | gust knots | rain 1hr in | rain 24hr in | rain mn in | humidity % | barometer mb |
| 20260906232714 | 80 | 281 | 4.3 | 6.1 | 0.00 | 0.00 | 0.00 | 35 | 1005.7 |
| 20260906231715 | 80 | 273 | 7.0 | 10.4 | 0.00 | 0.00 | 0.00 | 33 | 1005.8 |
| 20260906225713 | 83 | 214 | 4.3 | 9.6 | 0.00 | 0.00 | 0.00 | 32 | 1005.8 |
| 20260906225213 | 85 | 216 | 4.3 | 8.7 | 0.00 | 0.00 | 0.00 | 30 | 1005.9 |
| 20260906222711 | 85 | 255 | 2.6 | 8.7 | 0.00 | 0.00 | 0.00 | 31 | 1006.0 |
| 20260906185659 | 82 | 5 | 4.3 | 9.6 | 0.00 | 0.00 | 0.00 | 32 | 1008.7 |
| 20260906184658 | 81 | 355 | 3.5 | 9.6 | 0.00 | 0.00 | 0.00 | 33 | 1009.0 |
| 20260906172654 | 80 | 307 | 1.7 | 5.2 | 0.00 | 0.00 | 0.00 | 35 | 1009.8 |
| 20260906172153 | 80 | 281 | 1.7 | 7.8 | 0.00 | 0.00 | 0.00 | 36 | 1009.9 |
| 20260906171653 | 79 | 243 | 1.7 | 2.6 | 0.00 | 0.00 | 0.00 | 35 | 1009.9 |
| 20260906165652 | 78 | 240 | 0.9 | 5.2 | 0.00 | 0.00 | 0.00 | 36 | 1010.0 |
| 20260906163651 | 79 | 275 | 3.5 | 8.7 | 0.00 | 0.00 | 0.00 | 36 | 1010.4 |
| 20260906163151 | 79 | 289 | 1.7 | 7.0 | 0.00 | 0.00 | 0.00 | 36 | 1010.2 |
| 20260906161650 | 78 | 155 | 0.9 | 3.5 | 0.00 | 0.00 | 0.00 | 35 | 1010.3 |
| 20260906161150 | 78 | 155 | 0.9 | 1.7 | 0.00 | 0.00 | 0.00 | 35 | 1010.3 |
| 20260906155149 | 78 | 156 | 1.7 | 5.2 | 0.00 | 0.00 | 0.00 | 36 | 1010.5 |
| 20260906154648 | 78 | 157 | 1.7 | 4.3 | 0.00 | 0.00 | 0.00 | 35 | 1010.6 |
| 20260906154148 | 77 | 157 | 1.7 | 6.1 | 0.00 | 0.00 | 0.00 | 37 | 1010.6 |
| 20260906153147 | 76 | 155 | 0.9 | 1.7 | 0.00 | 0.00 | 0.00 | 37 | 1010.9 |
| 20260906152147 | 74 | 155 | 0.9 | 3.5 | 0.00 | 0.00 | 0.00 | 37 | 1011.0 |
| 20260906151146 | 74 | 155 | 0.9 | 1.7 | 0.00 | 0.00 | 0.00 | 36 | 1011.2 |
| 20260906150646 | 73 | 155 | 1.7 | 5.2 | 0.00 | 0.00 | 0.00 | 36 | 1011.2 |
| 20260906145645 | 72 | 155 | 1.7 | 2.6 | 0.00 | 0.00 | 0.00 | 38 | 1011.1 |
| 20260906144644 | 70 | 156 | 3.5 | 6.1 | 0.00 | 0.00 | 0.00 | 39 | 1011.0 |
| 20260906144144 | 69 | 157 | 2.6 | 5.2 | 0.00 | 0.00 | 0.00 | 40 | 1011.0 |
| 20260906143644 | 68 | 157 | 2.6 | 4.3 | 0.00 | 0.00 | 0.00 | 43 | 1011.1 |
| 20260906143144 | 68 | 157 | 2.6 | 5.2 | 0.00 | 0.00 | 0.00 | 42 | 1011.1 |
| 20260906142643 | 67 | 157 | 3.5 | 5.2 | 0.00 | 0.00 | 0.00 | 44 | 1011.1 |
| 20260906142143 | 67 | 157 | 3.5 | 6.1 | 0.00 | 0.00 | 0.00 | 45 | 1011.1 |
| 20260906135142 | 61 | 159 | 3.5 | 7.0 | 0.00 | 0.00 | 0.00 | 51 | 1011.2 |
| 20260906133640 | 58 | 157 | 4.3 | 7.8 | 0.00 | 0.00 | 0.00 | 53 | 1011.0 |
| 20260906133140 | 58 | 154 | 4.3 | 7.8 | 0.00 | 0.00 | 0.00 | 54 | 1011.1 |
| 20260906132640 | 57 | 153 | 5.2 | 7.8 | 0.00 | 0.00 | 0.00 | 55 | 1011.2 |
| 20260906132140 | 57 | 155 | 5.2 | 8.7 | 0.00 | 0.00 | 0.00 | 55 | 1011.2 |
| 20260906131139 | 56 | 160 | 3.5 | 6.1 | 0.00 | 0.00 | 0.00 | 56 | 1011.3 |
| 20260906130138 | 55 | 159 | 4.3 | 7.8 | 0.00 | 0.00 | 0.00 | 56 | 1011.1 |
| 20260906125638 | 55 | 159 | 4.3 | 7.0 | 0.00 | 0.00 | 0.00 | 56 | 1011.2 |
| 20260906123637 | 55 | 165 | 3.5 | 7.8 | 0.00 | 0.00 | 0.00 | 56 | 1011.2 |
| 20260906120635 | 54 | 159 | 4.3 | 7.0 | 0.00 | 0.00 | 0.00 | 56 | 1011.0 |
| 20260906105631 | 56 | 159 | 4.3 | 7.0 | 0.00 | 0.00 | 0.00 | 53 | 1010.6 |
| 20260906065617 | 55 | 168 | 3.5 | 6.1 | 0.00 | 0.00 | 0.00 | 50 | 1011.4 |
| 20260906065117 | 55 | 169 | 4.3 | 6.1 | 0.00 | 0.00 | 0.00 | 49 | 1011.3 |
| 20260906064617 | 55 | 169 | 4.3 | 5.2 | 0.00 | 0.00 | 0.00 | 49 | 1011.4 |
| 20260906063616 | 55 | 171 | 3.5 | 6.1 | 0.00 | 0.00 | 0.00 | 49 | 1011.3 |
| 20260906061615 | 55 | 173 | 3.5 | 6.1 | 0.00 | 0.00 | 0.00 | 49 | 1011.3 |
| 20260906060615 | 56 | 176 | 3.5 | 6.1 | 0.00 | 0.00 | 0.00 | 47 | 1011.5 |
| 20260906060114 | 56 | 178 | 3.5 | 5.2 | 0.00 | 0.00 | 0.00 | 47 | 1011.3 |
| 20260906055614 | 56 | 180 | 2.6 | 6.1 | 0.00 | 0.00 | 0.00 | 47 | 1011.4 |
| 20260906055114 | 56 | 184 | 2.6 | 4.3 | 0.00 | 0.00 | 0.00 | 47 | 1011.4 |
| 20260906054613 | 57 | 185 | 2.6 | 5.2 | 0.00 | 0.00 | 0.00 | 46 | 1011.5 |
| 20260906054113 | 57 | 186 | 2.6 | 3.5 | 0.00 | 0.00 | 0.00 | 46 | 1011.4 |
| 20260906053613 | 57 | 186 | 2.6 | 5.2 | 0.00 | 0.00 | 0.00 | 45 | 1011.5 |
| 20260906053113 | 57 | 189 | 2.6 | 4.3 | 0.00 | 0.00 | 0.00 | 45 | 1011.4 |
| 20260906052612 | 57 | 191 | 2.6 | 4.3 | 0.00 | 0.00 | 0.00 | 43 | 1011.5 |
| 20260906051612 | 58 | 192 | 2.6 | 5.2 | 0.00 | 0.00 | 0.00 | 45 | 1011.4 |
| 20260906050611 | 58 | 217 | 2.6 | 4.3 | 0.00 | 0.00 | 0.00 | 45 | 1011.5 |
| 20260906050111 | 58 | 225 | 2.6 | 4.3 | 0.00 | 0.00 | 0.00 | 44 | 1011.5 |
| 20260906045111 | 58 | 233 | 1.7 | 3.5 | 0.00 | 0.00 | 0.00 | 43 | 1011.6 |
| 20260906014059 | 72 | 323 | 0.0 | 0.0 | 0.00 | 0.00 | 0.00 | 27 | 1010.5 |
| 20260906012559 | 74 | 323 | 0.9 | 3.5 | 0.00 | 0.00 | 0.00 | 25 | 1010.5 |
| 20260906012058 | 75 | 323 | 0.9 | 2.6 | 0.00 | 0.00 | 0.00 | 25 | 1010.4 |
| 20260906011058 | 77 | 323 | 0.9 | 2.6 | 0.00 | 0.00 | 0.00 | 23 | 1010.5 |
| 20260906010557 | 78 | 324 | 1.7 | 3.5 | 0.00 | 0.00 | 0.00 | 23 | 1010.4 |
| 20260906005557 | 78 | 325 | 1.7 | 2.6 | 0.00 | 0.00 | 0.00 | 23 | 1010.5 |
| 20260906004556 | 78 | 325 | 2.6 | 3.5 | 0.00 | 0.00 | 0.00 | 22 | 1010.5 |
| 20260906003556 | 79 | 327 | 4.3 | 9.6 | 0.00 | 0.00 | 0.00 | 22 | 1010.6 |
| 20260906002055 | 78 | 306 | 3.5 | 7.8 | 0.00 | 0.00 | 0.00 | 22 | 1010.6 |
| 20260906001554 | 79 | 239 | 2.6 | 5.2 | 0.00 | 0.00 | 0.00 | 22 | 1010.6 |
| 20260906001055 | 79 | 240 | 2.6 | 6.1 | 0.00 | 0.00 | 0.00 | 22 | 1010.4 |
| 20260906000054 | 79 | 220 | 2.6 | 3.5 | 0.00 | 0.00 | 0.00 | 23 | 1010.4 |
| 20260905235053 | 79 | 309 | 1.7 | 7.8 | 0.00 | 0.00 | 0.00 | 23 | 1010.3 |